Voltar ao catálogo

CHINASAT 9

AtivoComunicaçõesGEO
NORAD 33051·PAYLOAD·🇨🇳 China

Lançado Jun 9, 2008 de Xichang Satellite Launch Center

Loading…

TLE

AtualizadoSource: Space-Track

Época: Sep 14, 2026, 14:14 UTC

1 33051U 08028A   26257.59347442 -.00000257  00000-0  00000-0 0  9995
2 33051   0.9912  84.0305 0005483 112.2926 103.2825  1.00273180 66935

Acompanhe CHINASAT 9 em tempo real com AllMySat

Download on the App Store